Terminal Aerodrome Forecast
Issued by NWS Bismarck, ND

Home | Current Version | Previous Version | Text Only | Print | Product List | Glossary Off
Versions: 1 2 3 4 5 6 7 8 9 10 11 12 13 14 15

000
FTUS43 KBIS 101700
TAFISN
TAF
KISN 101735Z 1018/1118 24009KT P6SM SKC
     FM102300 30016KT P6SM VCTS BKN040CB
     FM110400 34007KT P6SM SKC=

USA.gov is the U.S. government's official web portal to all federal, state and local government web resources and services.